Marfa, TX

7:50 AM CDT on May 27, 2018 (GMT -0500)
Marfa Municipal

Weather History for KMRF - February, 2014

Change the Weather History Date:

Wednesday, February 5, 2014

  Actual Average Record
Temperature  
Mean Temperature 25 °F -  
Max Temperature 33 °F 57 °F 75 °F (2017)
Min Temperature 17 °F 27 °F 12 °F (2011)
Degree Days  
Heating Degree Days 40    
Moisture  
Dew Point 17 °F    
Average Humidity 70    
Maximum Humidity 86    
Minimum Humidity 48    
Precipitation  
Precipitation 0.00 in - - ()
Sea Level Pressure  
Sea Level Pressure 30.16 in    
Wind  
Wind Speed 11 mph (NNE)    
Max Wind Speed 23 mph    
Max Gust Speed 28 mph    
Visibility 10 miles    
Events      
Averages and records for this station are not official NWS values.
T = Trace of Precipitation, MM = Missing Value Source: NWS Daily Summary

Daily Weather History Graph

Daily Weather History Graph

Search for Another Location

Airport or City:

Astronomy

Feb. 05, 2014 Rise Set
Actual Time 7:44 AM CST 6:36 PM CST
Civil Twilight 7:19 AM CST 7:01 PM CST
Nautical Twilight 6:50 AM CST 7:29 PM CST
Astronomical Twilight 6:22 AM CST 7:58 PM CST
Moon 11:30 AM CST (2/5) 12:03 AM CST (2/5)
Length of Visible Light 11h 41m
Length of Day
10h 51m
Waxing Crescent, 39% of the Moon is Illuminated
Feb 5
Waxing Crescent
Feb 6
First Quarter
Feb 14
Full
Feb 22
Last Quarter
Mar 1
New

Hourly Weather History & Observations

Time (CST) Temp. Windchill Dew Point Humidity Pressure Visibility Wind Dir Wind Speed Gust Speed Precip Events Conditions
12:15 AM 23.0 °F 18.4 °F 12.2 °F 63% 30.10 in 10.0 mi East 3.5 mph - N/A   Clear
12:35 AM 23.0 °F 14.7 °F 10.4 °F 59% 30.10 in 10.0 mi NW 6.9 mph - N/A   Clear
12:55 AM 21.2 °F 13.6 °F 10.4 °F 63% 30.11 in 10.0 mi NW 5.8 mph - N/A   Clear
1:15 AM 21.2 °F 16.4 °F 10.4 °F 63% 30.11 in 10.0 mi NE 3.5 mph - N/A   Clear
1:35 AM 23.0 °F 13.9 °F 10.4 °F 59% 30.12 in 10.0 mi North 8.1 mph - N/A   Clear
1:55 AM 21.2 °F 16.4 °F 10.4 °F 63% 30.12 in 10.0 mi NNW 3.5 mph - N/A   Clear
2:15 AM 21.2 °F 12.6 °F 10.4 °F 63% 30.12 in 10.0 mi NNW 6.9 mph - N/A   Clear
2:35 AM 23.0 °F 13.9 °F 10.4 °F 59% 30.12 in 10.0 mi North 8.1 mph - N/A   Clear
2:55 AM 24.8 °F 14.0 °F 12.2 °F 59% 30.12 in 10.0 mi NNW 11.5 mph - N/A   Clear
3:15 AM 26.6 °F 16.8 °F 12.2 °F 55% 30.12 in 10.0 mi NNW 10.4 mph - N/A   Clear
3:35 AM 26.6 °F 19.1 °F 12.2 °F 55% 30.13 in 10.0 mi NNW 6.9 mph - N/A   Clear
3:55 AM 24.8 °F 16.9 °F 12.2 °F 59% 30.13 in 10.0 mi NNW 6.9 mph - N/A   Clear
4:15 AM 24.8 °F 16.9 °F 12.2 °F 59% 30.13 in 10.0 mi North 6.9 mph - N/A   Clear
4:35 AM 26.6 °F 19.1 °F 12.2 °F 55% 30.13 in 10.0 mi NNE 6.9 mph - N/A   Clear
4:55 AM 24.8 °F 16.1 °F 14.0 °F 64% 30.13 in 10.0 mi North 8.1 mph - N/A   Clear
5:15 AM 26.6 °F 17.5 °F 15.8 °F 64% 30.12 in 10.0 mi North 9.2 mph - N/A   Clear
5:35 AM 28.4 °F 17.5 °F 15.8 °F 59% 30.13 in 10.0 mi North 13.8 mph - N/A   Clear
5:55 AM 33.8 °F 24.3 °F 15.8 °F 48% 30.13 in 10.0 mi North 13.8 mph - N/A   Clear
6:15 AM 33.8 °F 25.3 °F 15.8 °F 48% 30.14 in 10.0 mi NNE 11.5 mph - N/A   Clear
6:35 AM 33.8 °F 27.0 °F 15.8 °F 48% 30.15 in 10.0 mi NNE 8.1 mph - N/A   Clear
6:55 AM 32.0 °F - 14.0 °F 48% 30.15 in 10.0 mi Calm Calm - N/A   Clear
7:15 AM 32.0 °F 23.0 °F 14.0 °F 48% 30.17 in 10.0 mi ENE 11.5 mph - N/A   Clear
7:35 AM 30.2 °F 20.8 °F 19.4 °F 64% 30.18 in 10.0 mi NNE 11.5 mph - N/A   Clear
7:55 AM 28.4 °F 16.6 °F 23.0 °F 80% 30.20 in 10.0 mi NE 16.1 mph 19.6 mph N/A   Clear
8:15 AM 28.4 °F 15.8 °F 24.8 °F 86% 30.20 in 9.0 mi NE 18.4 mph 21.9 mph N/A   Scattered Clouds
8:35 AM 28.4 °F 19.1 °F 24.8 °F 86% 30.21 in 10.0 mi NNE 10.4 mph 18.4 mph N/A   Partly Cloudy
8:55 AM 30.2 °F 20.2 °F 24.8 °F 80% 30.22 in 10.0 mi NNE 12.7 mph - N/A   Partly Cloudy
9:15 AM 30.2 °F 20.8 °F 26.6 °F 86% 30.23 in 10.0 mi NNE 11.5 mph - N/A   Mostly Cloudy
9:35 AM 28.4 °F 17.0 °F 24.8 °F 86% 30.23 in 8.0 mi NNE 15.0 mph 19.6 mph N/A   Mostly Cloudy
9:55 AM 30.2 °F 20.2 °F 24.8 °F 80% 30.23 in 10.0 mi North 12.7 mph - N/A   Mostly Cloudy
10:15 AM 30.2 °F 19.8 °F 24.8 °F 80% 30.23 in 10.0 mi ENE 13.8 mph 19.6 mph N/A   Partly Cloudy
10:35 AM 30.2 °F 20.2 °F 24.8 °F 80% 30.24 in 10.0 mi ENE 12.7 mph - N/A   Clear
10:55 AM 32.0 °F 23.6 °F 24.8 °F 75% 30.23 in 10.0 mi NE 10.4 mph - N/A   Clear
11:15 AM 33.8 °F 24.8 °F 24.8 °F 70% 30.22 in 10.0 mi ENE 12.7 mph 18.4 mph N/A   Clear
11:35 AM 32.0 °F 20.5 °F 23.0 °F 69% 30.22 in 10.0 mi NE 18.4 mph 21.9 mph N/A   Clear
11:55 AM 30.2 °F 18.5 °F 23.0 °F 75% 30.22 in 10.0 mi NE 17.3 mph 23.0 mph N/A   Clear
12:15 PM 32.0 °F 20.1 °F 23.0 °F 69% 30.21 in 10.0 mi NE 19.6 mph - N/A   Clear
12:35 PM 30.2 °F 18.5 °F 23.0 °F 75% 30.21 in 9.0 mi NE 17.3 mph - N/A   Clear
12:55 PM 30.2 °F 17.4 °F 23.0 °F 75% 30.20 in 9.0 mi NE 20.7 mph 26.5 mph N/A   Clear
1:15 PM 30.2 °F 17.1 °F 21.2 °F 69% 30.18 in 10.0 mi NE 21.9 mph 25.3 mph N/A   Clear
1:35 PM 30.2 °F 17.8 °F 21.2 °F 69% 30.16 in 10.0 mi NE 19.6 mph - N/A   Clear
1:55 PM 28.4 °F 15.4 °F 21.2 °F 74% 30.14 in 10.0 mi NE 19.6 mph 25.3 mph N/A   Clear
2:15 PM 28.4 °F 14.7 °F 19.4 °F 69% 30.13 in 10.0 mi NE 21.9 mph 26.5 mph N/A   Clear
2:35 PM 26.6 °F 12.4 °F 19.4 °F 74% 30.12 in 10.0 mi NE 21.9 mph - N/A   Clear
2:55 PM 26.6 °F 12.0 °F 19.4 °F 74% 30.12 in 10.0 mi NE 23.0 mph 27.6 mph N/A   Clear
3:15 PM 24.8 °F 10.0 °F 19.4 °F 80% 30.12 in 10.0 mi NE 21.9 mph - N/A   Clear
3:35 PM 24.8 °F 10.0 °F 19.4 °F 80% 30.12 in 10.0 mi NE 21.9 mph 27.6 mph N/A   Clear
3:55 PM 24.8 °F 11.1 °F 19.4 °F 80% 30.12 in 10.0 mi NNE 18.4 mph 23.0 mph N/A   Scattered Clouds
4:15 PM 24.8 °F 12.4 °F 17.6 °F 74% 30.13 in 10.0 mi NE 15.0 mph 23.0 mph N/A   Overcast
4:35 PM 23.0 °F 9.2 °F 17.6 °F 80% 30.13 in 10.0 mi NE 17.3 mph 25.3 mph N/A   Mostly Cloudy
4:55 PM 23.0 °F 7.6 °F 17.6 °F 80% 30.13 in 10.0 mi NE 21.9 mph 26.5 mph N/A   Clear
5:15 PM 23.0 °F 8.7 °F 17.6 °F 80% 30.14 in 10.0 mi NE 18.4 mph - N/A   Clear
5:35 PM 23.0 °F 9.6 °F 17.6 °F 80% 30.14 in 10.0 mi NNE 16.1 mph 20.7 mph N/A   Scattered Clouds
5:55 PM 21.2 °F 6.8 °F 15.8 °F 80% 30.15 in 10.0 mi NNE 17.3 mph 21.9 mph N/A   Scattered Clouds
6:15 PM 21.2 °F 6.0 °F 15.8 °F 80% 30.15 in 10.0 mi NE 19.6 mph 26.5 mph N/A   Clear
6:35 PM 21.2 °F 7.3 °F 15.8 °F 80% 30.15 in 10.0 mi NE 16.1 mph 24.2 mph N/A   Clear
6:55 PM 21.2 °F 5.6 °F 14.0 °F 74% 30.14 in 10.0 mi NE 20.7 mph 25.3 mph N/A   Clear
7:15 PM 21.2 °F 6.8 °F 15.8 °F 80% 30.15 in 10.0 mi NE 17.3 mph 24.2 mph N/A   Clear
7:35 PM 19.4 °F 5.0 °F 14.0 °F 80% 30.15 in 10.0 mi NE 16.1 mph 23.0 mph N/A   Clear
7:55 PM 19.4 °F 5.0 °F 12.2 °F 74% 30.16 in 10.0 mi NE 16.1 mph 20.7 mph N/A   Clear
8:15 PM 19.4 °F 5.0 °F 12.2 °F 74% 30.17 in 10.0 mi NE 16.1 mph - N/A   Clear
8:35 PM 19.4 °F 7.2 °F 12.2 °F 74% 30.17 in 10.0 mi NE 11.5 mph 17.3 mph N/A   Clear
8:55 PM 19.4 °F 7.2 °F 12.2 °F 74% 30.18 in 10.0 mi NE 11.5 mph - N/A   Clear
9:15 PM 19.4 °F 6.0 °F 12.2 °F 74% 30.17 in 10.0 mi NE 13.8 mph - N/A   Clear
9:35 PM 19.4 °F 4.5 °F 12.2 °F 74% 30.18 in 10.0 mi NE 17.3 mph 23.0 mph N/A   Scattered Clouds
9:55 PM 17.6 °F 5.0 °F 12.2 °F 79% 30.18 in 10.0 mi NE 11.5 mph - N/A   Partly Cloudy
10:15 PM 19.4 °F 9.5 °F 12.2 °F 74% 30.19 in 10.0 mi NE 8.1 mph - N/A   Partly Cloudy
10:35 PM 19.4 °F 6.6 °F 12.2 °F 74% 30.18 in 10.0 mi NNE 12.7 mph - N/A   Partly Cloudy
10:55 PM 19.4 °F 8.6 °F 12.2 °F 74% 30.19 in 10.0 mi NE 9.2 mph - N/A   Mostly Cloudy
11:15 PM 19.4 °F 7.2 °F 10.4 °F 68% 30.19 in 10.0 mi NE 11.5 mph - N/A   Overcast
11:35 PM 19.4 °F 7.2 °F 12.2 °F 74% 30.19 in 10.0 mi NE 11.5 mph - N/A   Mostly Cloudy
11:55 PM 17.6 °F 3.2 °F 10.4 °F 73% 30.18 in 10.0 mi NE 15.0 mph - N/A   Mostly Cloudy